[[{"header":{"parameterUnit":"m.s-1","parameterCategory":1,"la1":30.2991,"la2":30.254,"lo1":-89.0895,"lo2":-89.0444,"dy":0.0017,"dx":0.0017,"nx":28,"ny":28,"refTime":"2024-02-28T09:00:00:Z","depth":0,"parameterNumber":2,"parameterNumberName":"U-component_of_WINDS"},"data":[0,0,0,0,0,0,0,0,0,0,0,0,0,0,0,0,0,0,0,0,0,0,0,0,0,0,0,0,0,0,0,0,0,0,0,0,0,0,0,0,0,0,0,0,0,0,0,0,0,0,0,0,0,0,0,0,0,0,1.202,1.2023,0,1.2264,1.2267,1.227,1.232,1.2318,1.2317,1.2315,1.2568,1.2576,1.2584,0,0,0,0,0,0,0,0,0,0,0,0,0,1.1601,1.1609,1.202,1.2023,1.2026,1.2264,1.2267,1.227,1.2321,1.2318,1.2316,1.2314,1.2565,1.2575,1.2585,0,0,0,0,0,0,0,0,0,0,0,0,0,1.1808,1.1611,1.2019,1.208,1.2087,1.2263,1.2267,1.2271,1.2321,1.2318,1.2316,1.2313,1.2562,1.2574,1.2586,1.272,0,0,1.2625,1.2631,0,0,0,0,0,0,0,0,1.1796,1.1823,1.2068,1.2076,1.2085,1.2259,1.2212,1.2422,1.2322,1.2232,1.2315,1.2312,1.2467,1.2488,1.254,1.2732,1.2743,1.2626,1.2634,1.2639,1.2643,0,0,0,0,0,0,0,1.1782,1.1813,1.2116,1.2071,1.2082,1.2096,1.2122,1.2252,1.2363,1.224,1.2244,1.2272,1.2471,1.2527,1.2546,1.2746,1.2626,1.2637,1.2645,1.265,1.3063,1.3066,0,0,0,0,0,0,1.1756,1.1801,1.2109,1.2124,1.1931,1.2106,1.2135,1.2206,1.2361,1.2382,1.2274,1.2274,1.2507,1.2531,1.2555,1.2723,1.2639,1.2651,1.2658,1.3059,1.3064,1.3067,0,0,0,0,0,0,1.1747,1.1783,1.2099,1.1964,1.2005,1.2116,1.2195,1.2212,1.2268,1.2387,1.2407,1.2311,1.2506,1.2537,1.2679,1.2732,1.2657,1.2668,1.3055,1.3061,1.3065,1.3058,0,0,0,0,0,0,1.1735,1.178,1.183,1.1964,1.2012,1.2217,1.2198,1.2219,1.2289,1.2291,1.2427,1.2447,1.2506,1.266,1.2691,1.2748,1.2678,1.3051,1.3058,1.3064,1.3054,1.3063,1.307,0,0,0,0,0,1.172,1.1819,1.1833,1.1869,1.2077,1.222,1.2248,1.2313,1.2293,1.2346,1.2423,1.2442,1.2721,1.2674,1.271,1.2771,1.3048,1.3056,1.3063,1.3051,1.3061,1.3069,0,0,0,0,0,0,1.1689,1.1837,1.1854,1.1999,1.2097,1.2228,1.2297,1.2321,1.2427,1.2424,1.2502,1.2532,1.267,1.2735,1.2679,1.291,1.2884,1.2899,1.2862,1.2873,1.288,1.2862,1.2689,0,0,0,0,0,1.1698,1.1801,1.1926,1.2042,1.209,1.2185,1.225,1.2292,1.2396,1.2438,1.2525,1.2627,1.2738,1.2809,1.2917,1.3064,1.3096,1.3125,1.3132,1.3138,1.315,1.3235,1.3249,1.3092,1.3092,1.3092,0,0,1.172,1.1814,1.1874,1.2038,1.2119,1.2224,1.2219,1.2331,1.2411,1.2455,1.2594,1.2662,1.2781,1.2926,1.2994,1.2985,1.3201,1.3148,1.3151,1.3161,1.3244,1.3259,1.3272,1.3097,1.3096,1.3095,0,0,1.1814,1.1894,1.2001,1.2082,1.2204,1.2267,1.2292,1.2421,1.2468,1.2608,1.2644,1.2741,1.293,1.3013,1.308,1.3208,1.323,1.3241,1.3281,1.3362,1.3375,1.3386,1.3433,1.3448,1.3253,1.3253,1.3253,0,1.1825,1.1985,1.2053,1.2163,1.2235,1.228,1.239,1.2465,1.2616,1.2666,1.2652,1.2891,1.2974,1.314,1.3172,1.3224,1.3257,1.3226,1.3367,1.3379,1.3391,1.3436,1.3453,1.3254,1.3254,1.3253,1.3253,0,1.1994,1.2105,1.2176,1.2321,1.2401,1.251,1.2596,1.2669,1.2705,1.277,1.2914,1.3015,1.3145,1.3188,1.3224,1.3361,1.3351,1.3351,1.3327,1.3405,1.3449,1.3467,1.3254,1.3254,1.3254,1.3254,0,0,1.2074,1.2255,1.2281,1.2348,1.2486,1.2574,1.2686,1.2813,1.2875,1.2979,1.3076,1.3235,1.3238,1.3314,1.336,1.3431,1.3527,1.3424,1.3428,1.344,1.3685,1.3684,1.3703,1.3543,1.3546,1.3549,1.3675,0,1.2185,1.2386,1.2451,1.2619,1.2723,1.2768,1.2866,1.2963,1.3027,1.3125,1.3197,1.3309,1.3302,1.3349,1.3422,1.35,1.3578,1.3492,1.3635,1.3639,1.3604,1.3725,1.3724,1.3838,1.3693,1.3696,1.3698,0,1.234,1.2446,1.2624,1.2752,1.2798,1.2885,1.3007,1.3101,1.3212,1.3254,1.3339,1.338,1.3501,1.347,1.3638,1.3578,1.3641,1.3689,1.3695,1.3711,1.3673,1.3745,1.3876,1.3893,1.3726,1.3723,1.3721,0,1.2382,1.2569,1.27,1.2756,1.2907,1.2968,1.3034,1.3142,1.3215,1.3323,1.3371,1.3492,1.3558,1.3651,1.3724,1.3694,1.3887,1.3861,1.3926,1.3924,1.3964,1.396,1.4107,1.4004,1.4003,1.4003,1.4003,0,1.2499,1.2606,1.2721,1.2801,1.2924,1.2999,1.3118,1.3187,1.3283,1.3379,1.3426,1.3516,1.3606,1.3708,1.3766,1.3898,1.3927,1.3965,1.398,1.3961,1.3957,1.4003,1.3998,1.4008,1.4007,1.4006,1.4005,0,1.2565,1.2646,1.2792,1.2924,1.296,1.3044,1.3158,1.3239,1.3305,1.3426,1.3459,1.3564,1.3686,1.3768,1.3925,1.3964,1.4107,1.412,1.4069,1.4076,1.4137,1.413,1.4319,1.4348,1.4224,1.4225,1.4226,0,1.2634,1.2718,1.2859,1.2927,1.2993,1.3101,1.3176,1.3253,1.3329,1.3464,1.3529,1.3654,1.3759,1.3952,1.4043,1.4164,1.418,1.4238,1.4198,1.4178,1.4181,1.4176,1.4185,1.4244,1.4245,1.4245,1.4246,0,1.2749,1.2786,1.2891,1.3012,1.3099,1.3198,1.3297,1.335,1.3445,1.3528,1.3654,1.3735,1.3895,1.402,1.4149,1.4219,1.4249,1.4258,1.4279,1.4262,1.4229,1.4248,1.4087,1.4253,1.4252,1.4252,1.4251,1.4251,1.282,1.2897,1.3009,1.3126,1.3208,1.33,1.3383,1.346,1.3566,1.3702,1.3742,1.3873,1.3984,1.4161,1.4233,1.4337,1.4332,1.4363,1.4371,1.4377,1.4378,1.4212,1.4361,1.4361,1.4361,1.4361,1.4361,0,1.2938,1.3013,1.3119,1.3256,1.3348,1.3368,1.348,1.3556,1.367,1.3771,1.3873,1.4018,1.414,1.424,1.4366,1.443,1.4448,1.4461,1.4457,1.4473,1.4375,1.4344,1.4445,1.4445,1.4445,1.4445,1.4445,1.4445,1.301,1.3142,1.3192,1.3367,1.3441,1.3569,1.3631,1.3717,1.3798,1.3957,1.4058,1.4123,1.4225,1.4358,1.4471,1.4498,1.4542,1.4553,1.4582,1.4489,1.4479,1.447,1.4442,1.4561,1.4562,1.4672,1.4672,1.4673]},{"header":{"parameterUnit":"m.s-1","parameterCategory":1,"la1":30.2991,"la2":30.254,"lo1":-89.0895,"lo2":-89.0444,"dy":0.0017,"dx":0.0017,"nx":28,"ny":28,"refTime":"2024-02-28T09:00:00:Z","depth":0,"parameterNumber":3,"parameterNumberName":"V-component_of_WINDS"},"data":[0,0,0,0,0,0,0,0,0,0,0,0,0,0,0,0,0,0,0,0,0,0,0,0,0,0,0,0,0,0,0,0,0,0,0,0,0,0,0,0,0,0,0,0,0,0,0,0,0,0,0,0,0,0,0,0,0,0,-8.1625,-8.1621,0,-8.1224,-8.122,-8.1215,-8.109,-8.1092,-8.1094,-8.1096,-8.0654,-8.0641,-8.0627,0,0,0,0,0,0,0,0,0,0,0,0,0,-8.225,-8.224,-8.1626,-8.1621,-8.1616,-8.1225,-8.1219,-8.1214,-8.109,-8.1092,-8.1094,-8.1097,-8.0658,-8.0642,-8.0626,0,0,0,0,0,0,0,0,0,0,0,0,0,-8.1926,-8.2236,-8.1626,-8.1507,-8.1493,-8.1226,-8.1219,-8.1212,-8.1089,-8.1092,-8.1095,-8.1098,-8.0664,-8.0644,-8.0624,-8.0437,0,0,-8.0561,-8.0552,0,0,0,0,0,0,0,0,-8.1945,-8.1903,-8.153,-8.1515,-8.1498,-8.1211,-8.1277,-8.0951,-8.1088,-8.1241,-8.1096,-8.1099,-8.0835,-8.08,-8.0717,-8.0416,-8.0397,-8.0559,-8.0547,-8.0538,-8.0532,0,0,0,0,0,0,0,-8.1968,-8.192,-8.1466,-8.1524,-8.1505,-8.1462,-8.142,-8.1215,-8.1025,-8.1228,-8.1218,-8.1174,-8.0826,-8.0738,-8.0706,-8.0391,-8.056,-8.0542,-8.0529,-8.0521,-7.9904,-7.99,0,0,0,0,0,0,-8.2015,-8.194,-8.1478,-8.1454,-8.1735,-8.1449,-8.1401,-8.1299,-8.1027,-8.0989,-8.1172,-8.117,-8.0771,-8.073,-8.069,-8.0446,-8.0538,-8.0519,-8.0507,-7.9908,-7.9903,-7.9898,0,0,0,0,0,0,-8.2029,-8.1975,-8.1495,-8.1694,-8.163,-8.1435,-8.1322,-8.129,-8.1201,-8.0985,-8.0947,-8.1119,-8.0772,-8.0719,-8.05,-8.0429,-8.051,-8.0491,-7.9913,-7.9906,-7.9901,-7.9961,0,0,0,0,0,0,-8.2047,-8.1981,-8.1916,-8.1694,-8.162,-8.1322,-8.1318,-8.128,-8.117,-8.1163,-8.0925,-8.0887,-8.077,-8.0532,-8.048,-8.0402,-8.0475,-7.9918,-7.991,-7.9903,-7.9965,-7.9958,-7.9952,0,0,0,0,0,-8.207,-8.1945,-8.1914,-8.1859,-8.1537,-8.1319,-8.1275,-8.1152,-8.1166,-8.1092,-8.0952,-8.0895,-8.0447,-8.0511,-8.0451,-8.0366,-7.9922,-7.9912,-7.9903,-7.9967,-7.9959,-7.9953,0,0,0,0,0,0,-8.2154,-8.1913,-8.1876,-8.1678,-8.1521,-8.1299,-8.1204,-8.1148,-8.0976,-8.0976,-8.082,-8.0766,-8.0557,-8.044,-8.0515,-8.0165,-8.0181,-8.0159,-8.025,-8.024,-8.0234,-8.0263,-8.0458,0,0,0,0,0,-8.2152,-8.2006,-8.1799,-8.1642,-8.1567,-8.14,-8.13,-8.1219,-8.1045,-8.0975,-8.0819,-8.0644,-8.0462,-8.0346,-8.0167,-7.9949,-7.9887,-7.986,-7.9854,-7.985,-7.983,-7.9694,-7.9676,-7.9868,-7.9868,-7.9868,0,0,-8.214,-8.1991,-8.1906,-8.1656,-8.1525,-8.1365,-8.1344,-8.1178,-8.1053,-8.0946,-8.0731,-8.0611,-8.0403,-8.0183,-8.0077,-8.0078,-7.9765,-7.9838,-7.9837,-7.9818,-7.9683,-7.9665,-7.9649,-7.9862,-7.9863,-7.9864,0,0,-8.2038,-8.1916,-8.1769,-8.1639,-8.1443,-8.1332,-8.1297,-8.1082,-8.1,-8.0785,-8.0698,-8.0543,-8.0238,-8.0091,-7.9977,-7.9815,-7.9751,-7.9761,-7.9725,-7.9594,-7.9579,-7.9565,-7.9497,-7.9475,-7.9743,-7.9743,-7.9743,0,-8.2046,-8.1814,-8.1697,-8.1535,-8.1421,-8.1327,-8.1169,-8.1045,-8.0797,-8.0715,-8.0724,-8.0334,-8.0188,-7.9926,-7.9887,-7.9801,-7.9745,-7.9784,-7.9593,-7.9577,-7.9562,-7.9495,-7.9471,-7.9745,-7.9745,-7.9745,-7.9745,0,-8.1827,-8.1666,-8.1569,-8.1342,-8.1218,-8.1058,-8.0906,-8.0793,-8.0721,-8.0606,-8.038,-8.0203,-7.9983,-7.9916,-7.9842,-7.964,-7.9646,-7.9627,-7.9636,-7.9548,-7.9481,-7.9455,-7.9748,-7.9747,-7.9747,-7.9746,0,0,-8.1764,-8.1476,-8.1441,-8.1333,-8.1109,-8.0976,-8.0807,-8.0602,-8.0502,-8.0333,-8.0179,-7.9921,-7.99,-7.977,-7.9677,-7.9565,-7.9435,-7.9555,-7.9548,-7.9531,-7.9188,-7.9199,-7.9172,-7.9395,-7.939,-7.9386,-7.9202,0,-8.1626,-8.1334,-8.1221,-8.0976,-8.0818,-8.0724,-8.0575,-8.0414,-8.0301,-8.0141,-8.0011,-7.9828,-7.9819,-7.9738,-7.9623,-7.9476,-7.9362,-7.9488,-7.9236,-7.9228,-7.9284,-7.9139,-7.9151,-7.8986,-7.9176,-7.9172,-7.9169,0,-8.1427,-8.1264,-8.1006,-8.0796,-8.0725,-8.0595,-8.0393,-8.0247,-8.0058,-7.9982,-7.9837,-7.9751,-7.9557,-7.9586,-7.9309,-7.9397,-7.9286,-7.9198,-7.9188,-7.9152,-7.9188,-7.909,-7.8932,-7.8904,-7.9129,-7.9132,-7.9135,0,-8.1396,-8.1111,-8.0918,-8.0829,-8.0582,-8.049,-8.0381,-8.0197,-8.0078,-7.9898,-7.9816,-7.9614,-7.9499,-7.9338,-7.9195,-7.9232,-7.8926,-7.8946,-7.8846,-7.8849,-7.8779,-7.8784,-7.8592,-7.8724,-7.8725,-7.8725,-7.8726,0,-8.1249,-8.1092,-8.09,-8.078,-8.0597,-8.0465,-8.0283,-8.0166,-8.0002,-7.9847,-7.9752,-7.9606,-7.9431,-7.9259,-7.9144,-7.8925,-7.8876,-7.8799,-7.8769,-7.8803,-7.8812,-7.8722,-7.8726,-7.8718,-7.872,-7.8721,-7.8722,0,-8.1181,-8.1048,-8.0829,-8.0615,-8.0556,-8.0429,-8.0238,-8.0111,-7.9995,-7.9799,-7.9745,-7.9556,-7.9349,-7.9193,-7.8921,-7.8843,-7.8607,-7.858,-7.8673,-7.8656,-7.8561,-7.8568,-7.8297,-7.825,-7.8424,-7.8423,-7.8422,0,-8.1092,-8.097,-8.0743,-8.0638,-8.0532,-8.0363,-8.0243,-8.0105,-7.9981,-7.9754,-7.9651,-7.944,-7.9262,-7.8932,-7.8762,-7.8551,-7.8511,-7.8431,-7.8478,-7.8513,-7.8496,-7.8502,-7.8483,-7.8422,-7.8421,-7.842,-7.8419,0,-8.0945,-8.0885,-8.0722,-8.0533,-8.0394,-8.0236,-8.0075,-7.9991,-7.9821,-7.9685,-7.9477,-7.934,-7.9065,-7.8849,-7.8622,-7.8494,-7.8421,-7.8407,-7.837,-7.8399,-7.8454,-7.8412,-7.8646,-7.8412,-7.8412,-7.8413,-7.8413,-7.8414,-8.0856,-8.074,-8.0562,-8.0379,-8.0246,-8.0097,-7.9965,-7.9834,-7.9662,-7.9433,-7.936,-7.9141,-7.8943,-7.8632,-7.8502,-7.8319,-7.8318,-7.8268,-7.8253,-7.824,-7.8238,-7.8493,-7.8278,-7.8278,-7.8278,-7.8278,-7.8278,0,-8.0696,-8.0578,-8.0413,-8.0193,-8.0046,-8.0007,-7.9824,-7.9699,-7.9512,-7.9341,-7.917,-7.8923,-7.8714,-7.8529,-7.8307,-7.8196,-7.8156,-7.8141,-7.8142,-7.8111,-7.8257,-7.8306,-7.8176,-7.8176,-7.8176,-7.8176,-7.8176,-7.8176,-8.0596,-8.0394,-8.0312,-8.0038,-7.9916,-7.971,-7.9607,-7.9464,-7.9326,-7.9059,-7.8888,-7.8774,-7.8591,-7.8355,-7.8156,-7.8105,-7.8022,-7.8013,-7.7953,-7.8091,-7.8103,-7.8114,-7.8159,-7.8,-7.7999,-7.7821,-7.7819,-7.7818]}]]